This demonstration page uses our WeatherBlox Daily Observations layout. Learn more.

Left ArrowRight Arrow

39.01783, -85.05884

Hourly Observations for June 8, 2017

Temp ( °F °C ) Dew Point ( °F °C ) Humidity (%) Winds ( mph kmh ) Pressure ( in mb ) Visibility ( mi km ) Precip ( " mm )
12:52 am 00:52 Mostly Clear 59 15 49 9.4 69 69 ENE 6 9 30.01 1016 10 16 N/A
1:52 am 01:52 Mostly Clear 58 14.4 49 9.4 72 72 ENE 7 11 30.00 1016 10 16 N/A
2:52 am 02:52 Mostly Clear 57 13.9 50 10 78 78 NE 7 11 29.98 1015 10 16 N/A
3:52 am 03:52 Mostly Clear 54 12.2 49 9.4 83 83 N 6 9 29.99 1016 10 16 N/A
4:52 am 04:52 Partly Cloudy 53 11.7 49 9.4 86 86 N 6 9 29.98 1015 10 16 N/A
5:52 am 05:52 Mostly Cloudy 53 11.7 49 9.4 86 86 N 7 11 29.99 1016 10 16 N/A
6:52 am 06:52 Partly Cloudy 55 12.8 50 10 83 83 NNE 7 11 30.00 1016 10 16 N/A
7:52 am 07:52 Mostly Cloudy 57 13.9 51 10.6 81 81 NNE 10 17 30.00 1016 10 16 N/A
8:52 am 08:52 Mostly Cloudy 59 15 51 10.6 75 75 NE 8 13 30.01 1016 10 16 N/A
9:52 am 09:52 Mostly Cloudy 64 17.8 51 10.6 63 63 NNE 9 15 30.00 1016 10 16 N/A
10:52 am 10:52 Partly Cloudy 67 19.4 51 10.6 57 57 NNE 9 15 29.99 1016 10 16 N/A
11:52 am 11:52 Partly Cloudy 70 21.1 51 10.6 51 51 ENE 5 7 29.98 1015 10 16 N/A
12:52 pm 12:52 Mostly Cloudy 70 21.1 50 10 49 49 N 7 11 29.97 1015 10 16 N/A
1:52 pm 13:52 Mostly Cloudy 71 21.7 50 10 47 47 VRB 5 7 29.96 1014 10 16 N/A
2:52 pm 14:52 Mostly Cloudy 71 21.7 50 10 47 47 VRB 7 11 29.94 1014 10 16 N/A
3:52 pm 15:52 Mostly Cloudy 73 22.8 50 10 44 44 N 7 11 29.91 1013 10 16 N/A
4:52 pm 16:52 Partly Cloudy 75 23.9 51 10.6 43 43 WNW 6 9 29.90 1012 10 16 N/A
5:52 pm 17:52 Mostly Cloudy 76 24.4 51 10.6 42 42 NW 6 9 29.88 1012 10 16 N/A
6:52 pm 18:52 Mostly Sunny 75 23.9 48 8.9 39 39 NNW 7 11 29.87 1012 10 16 N/A
7:52 pm 19:52 Mostly Sunny 73 22.8 48 8.9 41 41 NW 8 13 29.87 1012 10 16 N/A
8:52 pm 20:52 Mostly Sunny 67 19.4 51 10.6 57 57 W 7 11 29.88 1012 10 16 N/A
9:52 pm 21:52 Mostly Clear 65 18.3 50 10 59 59 W 5 7 29.89 1012 10 16 N/A
10:52 pm 22:52 Clear 63 17.2 51 10.6 65 65 W 6 9 29.89 1012 10 16 N/A
11:52 pm 23:52 Clear 61 16.1 51 10.6 70 70 W 7 11 29.89 1012 10 16 N/A

Powered by AerisWeather